TimeEDT,TemperatureF,Dew PointF,Humidity,Sea Level PressureIn,VisibilityMPH,Wind Direction,Wind SpeedMPH,Gust SpeedMPH,PrecipitationIn,Events,Conditions,WindDirDegrees,DateUTC
12:54 AM,41.0,39.0,93,30.17,10.0,West,3.5,-,N/A,,Clear,270,2011-10-03 04:54:00
1:54 AM,42.1,39.0,89,30.16,10.0,Calm,Calm,-,N/A,,Clear,0,2011-10-03 05:54:00
2:54 AM,41.0,37.9,89,30.16,10.0,Calm,Calm,-,N/A,,Clear,0,2011-10-03 06:54:00
3:54 AM,39.9,37.9,93,30.16,10.0,Calm,Calm,-,N/A,,Clear,0,2011-10-03 07:54:00
4:54 AM,39.0,37.0,93,30.16,10.0,Calm,Calm,-,N/A,,Clear,0,2011-10-03 08:54:00
5:54 AM,39.9,37.0,89,30.17,10.0,Calm,Calm,-,N/A,,Clear,0,2011-10-03 09:54:00
6:54 AM,37.9,36.0,93,30.19,10.0,Calm,Calm,-,N/A,,Clear,0,2011-10-03 10:54:00
7:02 AM,37.4,37.4,100,30.19,9.0,Calm,Calm,-,N/A,,Scattered Clouds,0,2011-10-03 11:02:00
7:54 AM,37.9,37.0,97,30.21,10.0,Calm,Calm,-,N/A,,Clear,0,2011-10-03 11:54:00
8:54 AM,42.1,39.9,92,30.21,10.0,Calm,Calm,-,N/A,,Clear,0,2011-10-03 12:54:00
9:54 AM,48.9,44.1,83,30.22,10.0,Calm,Calm,-,N/A,,Clear,0,2011-10-03 13:54:00
10:54 AM,57.9,48.0,70,30.23,10.0,Calm,Calm,-,N/A,,Clear,0,2011-10-03 14:54:00
11:54 AM,64.9,46.9,52,30.20,10.0,WSW,4.6,-,N/A,,Clear,240,2011-10-03 15:54:00
12:54 PM,70.0,43.0,38,30.19,10.0,North,12.7,-,N/A,,Clear,350,2011-10-03 16:54:00
2:54 PM,73.9,44.1,34,30.15,10.0,North,8.1,16.1,N/A,,Clear,350,2011-10-03 18:54:00
3:54 PM,75.0,44.1,33,30.15,10.0,North,13.8,-,N/A,,Clear,350,2011-10-03 19:54:00
4:54 PM,75.0,44.1,33,30.15,10.0,North,9.2,-,N/A,,Clear,360,2011-10-03 20:54:00
6:54 PM,70.0,45.0,41,30.16,10.0,NNE,5.8,-,N/A,,Clear,30,2011-10-03 22:54:00
7:54 PM,64.0,43.0,46,30.18,10.0,NNE,6.9,-,N/A,,Clear,20,2011-10-03 23:54:00
8:54 PM,61.0,42.1,50,30.19,10.0,NNE,6.9,-,N/A,,Clear,30,2011-10-04 00:54:00
9:54 PM,57.9,43.0,58,30.20,10.0,NE,9.2,-,N/A,,Clear,40,2011-10-04 01:54:00
10:54 PM,55.0,43.0,64,30.22,10.0,NNE,6.9,-,N/A,,Clear,30,2011-10-04 02:54:00
11:54 PM,52.0,44.1,74,30.22,10.0,NE,4.6,-,N/A,,Clear,50,2011-10-04 03:54:00